TimeCST,TemperatureF,Dew PointF,Humidity,Sea Level PressureIn,VisibilityMPH,Wind Direction,Wind SpeedMPH,Gust SpeedMPH,PrecipitationIn,Events,Conditions,WindDirDegrees,DateUTC
12:55 AM,36.0,31.8,85,29.94,10.0,Variable,4.6,-,N/A,,Clear,0,2012-12-19 06:55:00
1:55 AM,34.3,30.4,85,29.96,10.0,Calm,Calm,-,N/A,,Clear,0,2012-12-19 07:55:00
2:55 AM,32.9,30.4,90,29.97,10.0,Calm,Calm,-,N/A,,Clear,0,2012-12-19 08:55:00
3:55 AM,31.1,29.8,95,29.97,10.0,NNE,3.5,-,N/A,,Mostly Cloudy,20,2012-12-19 09:55:00
4:55 AM,29.1,28.6,98,29.98,10.0,NNE,3.5,-,N/A,,Clear,20,2012-12-19 10:55:00
5:01 AM,30.2,28.4,93,29.98,8.0,Calm,Calm,-,N/A,,Clear,0,2012-12-19 11:01:00
5:09 AM,30.2,30.2,100,29.98,9.0,NNE,3.5,-,N/A,,Clear,30,2012-12-19 11:09:00
5:55 AM,29.5,29.3,99,29.98,10.0,Calm,Calm,-,N/A,,Clear,0,2012-12-19 11:55:00
6:55 AM,32.0,31.3,97,29.99,10.0,ENE,3.5,-,N/A,,Clear,60,2012-12-19 12:55:00
7:27 AM,32.0,32.0,100,30.00,10.0,SE,4.6,-,N/A,,Mostly Cloudy,130,2012-12-19 13:27:00
7:55 AM,32.4,31.8,98,30.03,9.0,SSE,3.5,-,N/A,,Overcast,160,2012-12-19 13:55:00
8:03 AM,32.0,32.0,100,30.03,9.0,Calm,Calm,-,N/A,,Scattered Clouds,0,2012-12-19 14:03:00
8:55 AM,33.8,32.7,96,30.01,9.0,ENE,5.8,-,N/A,,Partly Cloudy,60,2012-12-19 14:55:00
9:55 AM,36.9,34.3,91,30.02,10.0,East,6.9,-,N/A,,Clear,100,2012-12-19 15:55:00
10:55 AM,39.7,35.1,83,30.02,10.0,East,8.1,-,N/A,,Partly Cloudy,100,2012-12-19 16:55:00
11:55 AM,41.5,35.4,79,29.99,10.0,ENE,6.9,-,N/A,,Scattered Clouds,70,2012-12-19 17:55:00
12:55 PM,41.9,36.3,81,29.95,10.0,ENE,11.5,-,N/A,,Mostly Cloudy,70,2012-12-19 18:55:00
1:55 PM,42.6,36.3,78,29.91,10.0,East,9.2,-,N/A,,Overcast,80,2012-12-19 19:55:00
2:37 PM,42.8,37.4,81,29.88,10.0,East,12.7,-,N/A,,Overcast,90,2012-12-19 20:37:00
2:55 PM,43.5,37.0,78,29.88,10.0,East,9.2,-,N/A,,Overcast,80,2012-12-19 20:55:00
3:55 PM,43.7,37.6,79,29.88,10.0,East,8.1,-,N/A,,Overcast,80,2012-12-19 21:55:00
4:55 PM,43.9,38.5,81,29.85,10.0,ESE,9.2,-,N/A,,Overcast,110,2012-12-19 22:55:00
5:55 PM,45.3,39.2,79,29.81,10.0,ESE,13.8,19.6,N/A,,Overcast,120,2012-12-19 23:55:00
6:55 PM,46.4,40.3,79,29.80,10.0,East,6.9,-,N/A,,Overcast,100,2012-12-20 00:55:00
7:14 PM,48.2,41.0,76,29.78,10.0,East,9.2,-,N/A,,Overcast,100,2012-12-20 01:14:00
7:32 PM,48.2,41.0,76,29.78,10.0,East,8.1,-,N/A,,Overcast,90,2012-12-20 01:32:00
7:55 PM,47.7,41.7,80,29.77,10.0,East,5.8,-,N/A,,Overcast,90,2012-12-20 01:55:00
8:05 PM,48.2,42.8,82,29.75,10.0,East,6.9,-,N/A,,Overcast,90,2012-12-20 02:05:00
8:55 PM,49.1,42.6,78,29.73,10.0,ESE,8.1,-,N/A,,Overcast,110,2012-12-20 02:55:00
9:53 PM,50.0,44.6,82,29.68,10.0,SE,6.9,-,N/A,Rain,Light Rain,130,2012-12-20 03:53:00
9:55 PM,49.5,44.4,83,29.68,10.0,ESE,6.9,-,N/A,,Overcast,120,2012-12-20 03:55:00
10:14 PM,50.0,46.4,87,29.65,10.0,ESE,5.8,-,N/A,,Overcast,120,2012-12-20 04:14:00
10:55 PM,50.4,47.3,89,29.62,10.0,ESE,5.8,-,0.00,,Overcast,120,2012-12-20 04:55:00
11:41 PM,53.6,48.2,82,29.58,10.0,SE,9.2,-,N/A,Rain,Light Rain,130,2012-12-20 05:41:00
11:55 PM,53.2,48.7,85,29.57,10.0,SSE,11.5,-,0.00,Rain,Light Rain,150,2012-12-20 05:55:00
11:58 PM,53.6,48.2,82,29.56,10.0,SSE,12.7,-,N/A,,Overcast,150,2012-12-20 05:58:00